CZ-6A DEB, 56258

Orbit data source: Space-Track

CZ-6A DEB, 56258 is space debris in SSO originally from a launch on Fri, 11 Nov 2022 UTC launched from the Taiyaun Space Center, China (TSC). Debris objects in space refer to the collection of defunct objects orbiting the Earth. Examples of debris include non-operational satellites, rocket bodies, and fragments generated from explosions, collisions, or faulty payload assembly.

Loading next visibility...
Identifier
56258, 2022-151ACA
Orbit
SSO
Country
Flag of CNCN / PRC
Related business
Manufacturer
SAST
Mission
Spacecraft
Bus & Motor
Unknown
Mass
Unknown
Launch date (UTC)
2022-11-11 (4 years ago)
Launch vehicle
Unknown
Launch site
Taiyaun Space Center, China (TSC)
Object type
Payload
Rocket body
Debris
Shape & HBR
Unknown shape, 0.1 m
Radar Cross Section
Medium (>0.1 m² and <1 m²)

Expand to show TLE details & history
Last TLE update: 22 hours ago

TLE from 22 hours ago
0 CZ-6A DEB
1 56258U 22151ACA 26263.09653110  .00007263  00000-0  13712-2 0  9995
2 56258  98.6515 312.8805 0095913  94.1421 267.0748 14.61820654188184
Epoch: 2026-09-20T02:19Z
TLE epoch observation values (Epoch: 2026-09-20T02:19:00.287Z)
Latitude
0.00005°
Longitude
-80.86632°
Altitude
694.382 km
Speed
7.507 km/s
True Right ascension
20h 51m 31s
True Declination
0° 00' 00"
Sunlit
Object was in full shadow at epoch
Visualization orbit readout
Latitude
Unknown
Longitude
Unknown
Altitude
Unknown
Speed
Unknown
Apparent Right ascension
Unknown
Apparent Declination
Unknown
Sunlit
N/A
Visualization observer readout
Local Sidereal Time
17:09:57
Azimuth
Unknown
Elevation
Unknown
Doppler factor
Unknown
Orbital elements
Apogee altitude
752.14 km
Perigee altitude
616.662 km
Semi-major axis
7,062.538 km
Eccentricity
0.00959
Inclination
98.6515°
RAAN
312.8805°
Arg. of periapsis
94.1421°
True anomaly
265.97789°
Mean anomaly
267.0748°
Eccentric anomaly
266.52627°
Mean motion
3.65681 °/min
Orbital period
98.45 mins
BSTAR
0.0013712
Loading maneuver chart data...
Computing Atmospheric mass density...

Documentation

Showing up to 5 results
|